Location: Balaclava NSW 2575, Australia
(34.4510°S, 150.4953°E)
Time: 07:53:38
(UTC+10:00)

ISS - Pass Details

Date: 20 May 2021
Orbit: 417 x 422 km, 51.6° (Epoch: 17 June)

Event Time Altitude Azimuth Distance (km) Brightness Sun altitude
Rises 05:09:05 0° 358° (N) 2,363 0.2 -20.2°
Reaches altitude 10° 05:12:13 10° 29° (NNE) 1,509 -0.4 -19.6°
Maximum altitude 05:13:37 12° 54° (NE) 1,390 -0.2 -19.3°
Drops below altitude 10° 05:15:02 10° 79° (ENE) 1,517 0.3 -19.0°
Sets 05:18:11 0° 110° (ESE) 2,392 1.1 -18.4°
